Las Vegas, NM

1:48 AM MDT on April 25, 2017 (GMT -0600)
Las Vegas Municipal

Weather History for KLVS - January, 2013

Change the Weather History Date:

Tuesday, January 1, 2013

  Actual Average Record
Temperature  
Mean Temperature 20 °F -  
Max Temperature 26 °F 39 °F 69 °F (1997)
Min Temperature 9 °F 13 °F -16 °F (1979)
Degree Days  
Heating Degree Days 45    
Moisture  
Dew Point 15 °F    
Average Humidity 91    
Maximum Humidity 100    
Minimum Humidity 69    
Precipitation  
Precipitation 0.00 in - - ()
Sea Level Pressure  
Sea Level Pressure 30.08 in    
Wind  
Wind Speed 4 mph (East)    
Max Wind Speed 12 mph    
Max Gust Speed -    
Visibility 7 miles    
Events Fog    
Averages and records for this station are not official NWS values.
T = Trace of Precipitation, MM = Missing Value Source: NWS Daily Summary

Daily Weather History Graph

Daily Weather History Graph

Search for Another Location

Airport or City:

Trip Planner

Search our weather history database for the weather conditions in past years. The results will help you decide how hot, cold, wet, or windy it might be!

Date:

Astronomy

Jan. 01, 2013 Rise Set
Actual Time 7:10 AM MST 4:58 PM MST
Civil Twilight 6:42 AM MST 5:26 PM MST
Nautical Twilight 6:10 AM MST 5:58 PM MST
Astronomical Twilight 5:39 AM MST 6:29 PM MST
Moon 9:22 PM MST (1/1) 9:32 AM MST (1/1)
Length of Visible Light 10h 44m
Length of Day
9h 48m
Waning Gibbous, 83% of the Moon is Illuminated
Jan 1
Waning Gibbous
Jan 4
Last Quarter
Jan 11
New
Jan 18
First Quarter
Jan 26
Full

Hourly Weather History & Observations

Time (MST) Temp. Windchill Dew Point Humidity Pressure Visibility Wind Dir Wind Speed Gust Speed Precip Events Conditions
12:16 AM 17.6 °F 10.7 °F 17.6 °F 100% 29.94 in 1.0 mi ENE 4.6 mph - N/A   Mist
12:30 AM 17.6 °F 8.2 °F 17.6 °F 100% 29.93 in 3.0 mi ENE 6.9 mph - N/A   Overcast
12:53 AM 18.0 °F 9.8 °F 17.1 °F 96% 29.99 in 10.0 mi NE 5.8 mph - N/A   Overcast
1:37 AM 17.6 °F 12.3 °F 17.6 °F 100% 29.94 in 10.0 mi East 3.5 mph - N/A   Overcast
1:53 AM 18.0 °F - 17.1 °F 96% 30.03 in 10.0 mi Calm Calm - N/A   Overcast
2:25 AM 17.6 °F 12.3 °F 15.8 °F 93% 29.95 in 10.0 mi NE 3.5 mph - N/A   Overcast
2:53 AM 18.0 °F 12.7 °F 16.0 °F 92% 30.01 in 10.0 mi NE 3.5 mph - N/A   Overcast
3:17 AM 17.6 °F - 17.6 °F 100% 29.96 in 10.0 mi Calm Calm - N/A   Overcast
4:25 AM 17.6 °F - 15.8 °F 93% 29.96 in 10.0 mi Calm Calm - N/A   Overcast
4:53 AM 17.1 °F 11.7 °F 16.0 °F 96% 30.05 in 10.0 mi SSW 3.5 mph - N/A   Overcast
5:53 AM 17.1 °F 11.7 °F 15.1 °F 92% 30.05 in 10.0 mi North 3.5 mph - N/A   Overcast
6:12 AM 15.8 °F - 15.8 °F 100% 29.99 in 10.0 mi Calm Calm - N/A   Overcast
6:53 AM 16.0 °F 10.4 °F 14.0 °F 92% 30.10 in 10.0 mi SSE 3.5 mph - N/A   Overcast
7:17 AM 15.8 °F 8.6 °F 14.0 °F 93% 30.02 in 2.5 mi SW 4.6 mph - N/A   Overcast
7:25 AM 15.8 °F - 14.0 °F 93% 30.02 in 1.0 mi Calm Calm - N/A   Overcast
7:39 AM 15.8 °F - 14.0 °F 93% 30.02 in 0.5 mi Calm Calm - N/A Fog Light Freezing Fog
7:46 AM 15.8 °F - 14.0 °F 93% 30.02 in 0.2 mi Calm Calm - N/A Fog Light Freezing Fog
8:42 AM 15.8 °F - 14.0 °F 93% 30.04 in 0.8 mi Calm Calm - N/A   Mist
8:53 AM 16.0 °F - 14.0 °F 92% 30.17 in 0.2 mi Calm Calm - N/A Fog Light Freezing Fog
9:10 AM 17.6 °F - 15.8 °F 93% 30.06 in 0.5 mi Calm Calm - N/A Fog Light Freezing Fog
9:29 AM 15.8 °F - 14.0 °F 93% 30.07 in 1.5 mi Calm Calm - N/A   Overcast
9:53 AM 16.0 °F - 15.1 °F 96% 30.19 in 1.0 mi Calm Calm - N/A   Overcast
10:03 AM 17.6 °F 12.3 °F 15.8 °F 93% 30.08 in 3.0 mi East 3.5 mph - N/A   Overcast
10:37 AM 17.6 °F 12.3 °F 17.6 °F 100% 30.08 in 10.0 mi SE 3.5 mph - N/A   Overcast
10:53 AM 19.0 °F 11.1 °F 16.0 °F 88% 30.18 in 10.0 mi SSE 5.8 mph - N/A   Overcast
11:49 AM 21.2 °F 14.9 °F 17.6 °F 86% 30.05 in 10.0 mi SE 4.6 mph - N/A   Scattered Clouds
11:53 AM 21.0 °F 16.2 °F 17.1 °F 85% 30.14 in 10.0 mi ENE 3.5 mph - N/A   Partly Cloudy
12:53 PM 21.9 °F 13.4 °F 18.0 °F 85% 30.09 in 10.0 mi NE 6.9 mph - N/A   Clear
1:53 PM 23.0 °F 13.9 °F 19.0 °F 85% 30.07 in 10.0 mi NE 8.1 mph - N/A   Clear
2:53 PM 25.0 °F 16.3 °F 19.0 °F 78% 30.07 in 10.0 mi ENE 8.1 mph - N/A   Clear
3:53 PM 26.1 °F 19.4 °F 17.1 °F 69% 30.09 in 10.0 mi SE 5.8 mph - N/A   Overcast
4:53 PM 24.1 °F 13.7 °F 17.1 °F 75% 30.12 in 10.0 mi South 10.4 mph - N/A   Overcast
5:53 PM 18.0 °F 5.4 °F 15.1 °F 88% 30.17 in 10.0 mi SSE 11.5 mph - N/A   Scattered Clouds
6:53 PM 16.0 °F - 14.0 °F 92% 30.20 in 10.0 mi Calm Calm - N/A   Overcast
7:53 PM 15.1 °F 6.4 °F 12.0 °F 88% 30.22 in 10.0 mi West 5.8 mph - N/A   Clear
8:53 PM 17.1 °F 10.0 °F 12.9 °F 84% 30.21 in 10.0 mi Variable 4.6 mph - N/A   Clear
9:53 PM 17.1 °F 11.7 °F 15.1 °F 92% 30.21 in 10.0 mi NW 3.5 mph - N/A   Clear
10:53 PM 14.0 °F 8.2 °F 12.9 °F 95% 30.21 in 6.0 mi WNW 3.5 mph - N/A   Clear
11:53 PM 9.0 °F 0.6 °F 3.9 °F 80% 30.23 in 10.0 mi North 4.6 mph - N/A   Clear